"Time","Value","Approval","myLocation"
"2023-05-06 00:00",14.6784309859155,"Approved","OW470"
"2023-05-06 01:00",14.6809338028169,"Approved","OW470"
"2023-05-06 02:00",14.6817366197183,"Approved","OW470"
"2023-05-06 03:00",14.6809394366197,"Approved","OW470"
"2023-05-06 04:00",14.6808422535211,"Approved","OW470"
"2023-05-06 05:00",14.6802450704225,"Approved","OW470"
"2023-05-06 06:00",14.6782478873239,"Approved","OW470"
"2023-05-06 07:00",14.6770507042254,"Approved","OW470"
"2023-05-06 08:00",14.6759535211268,"Approved","OW470"
"2023-05-06 09:00",14.6718563380282,"Approved","OW470"
"2023-05-06 10:00",14.6693591549296,"Approved","OW470"
"2023-05-06 11:00",14.667761971831,"Approved","OW470"
"2023-05-06 12:00",14.6653647887324,"Approved","OW470"
"2023-05-06 13:00",14.6629676056338,"Approved","OW470"
"2023-05-06 14:00",14.6598704225352,"Approved","OW470"
"2023-05-06 15:00",14.6580732394366,"Approved","OW470"
"2023-05-06 16:00",14.654476056338,"Approved","OW470"
"2023-05-06 17:00",14.6517788732394,"Approved","OW470"
"2023-05-06 18:00",14.6466816901408,"Approved","OW470"
"2023-05-06 19:00",14.6446845070423,"Approved","OW470"
"2023-05-06 20:00",14.6428873239437,"Approved","OW470"
"2023-05-06 21:00",14.6424901408451,"Approved","OW470"
"2023-05-06 22:00",14.6412929577465,"Approved","OW470"
"2023-05-06 23:00",14.6418957746479,"Approved","OW470"
"2023-05-07 00:00",14.6409985915493,"Approved","OW470"
"2023-05-07 01:00",14.6398014084507,"Approved","OW470"
"2023-05-07 02:00",14.6408042253521,"Approved","OW470"
"2023-05-07 03:00",14.6387070422535,"Approved","OW470"
"2023-05-07 04:00",14.6382098591549,"Approved","OW470"
"2023-05-07 05:00",14.6330126760563,"Approved","OW470"
"2023-05-07 06:00",14.6315154929577,"Approved","OW470"
"2023-05-07 07:00",14.6296183098592,"Approved","OW470"
"2023-05-07 08:00",14.6279211267606,"Approved","OW470"
"2023-05-07 09:00",14.625823943662,"Approved","OW470"
"2023-05-07 10:00",14.6228267605634,"Approved","OW470"
"2023-05-07 11:00",14.6201295774648,"Approved","OW470"
"2023-05-07 12:00",14.6193323943662,"Approved","OW470"
"2023-05-07 13:00",14.6185352112676,"Approved","OW470"
"2023-05-07 14:00",14.616538028169,"Approved","OW470"
"2023-05-07 15:00",14.6160408450704,"Approved","OW470"
"2023-05-07 16:00",14.6141436619718,"Approved","OW470"
"2023-05-07 17:00",14.6133464788732,"Approved","OW470"
"2023-05-07 18:00",14.6134492957746,"Approved","OW470"
"2023-05-07 19:00",14.6110521126761,"Approved","OW470"
"2023-05-07 20:00",14.6096549295775,"Approved","OW470"
"2023-05-07 21:00",14.6100577464789,"Approved","OW470"
"2023-05-07 22:00",14.6097605633803,"Approved","OW470"
"2023-05-07 23:00",14.6103633802817,"Approved","OW470"
"2023-05-08 00:00",14.6098661971831,"Approved","OW470"
"2023-05-08 01:00",14.6098690140845,"Approved","OW470"
"2023-05-08 02:00",14.6072718309859,"Approved","OW470"
"2023-05-08 03:00",14.6061746478873,"Approved","OW470"
"2023-05-08 04:00",14.6050774647887,"Approved","OW470"
"2023-05-08 05:00",14.6034802816901,"Approved","OW470"
"2023-05-08 06:00",14.6026830985915,"Approved","OW470"
"2023-05-08 07:00",14.600185915493,"Approved","OW470"
"2023-05-08 08:00",14.5985887323944,"Approved","OW470"
"2023-05-08 09:00",14.5956915492958,"Approved","OW470"
"2023-05-08 10:00",14.5951943661972,"Approved","OW470"
"2023-05-08 11:00",14.5936971830986,"Approved","OW470"
"2023-05-08 12:00",14.5923,"Approved","OW470"
"2023-05-08 13:00",14.5915028169014,"Approved","OW470"
"2023-05-08 14:00",14.5902056338028,"Approved","OW470"
"2023-05-08 15:00",14.5890084507042,"Approved","OW470"
"2023-05-08 16:00",14.5869112676056,"Approved","OW470"
"2023-05-08 17:00",14.584814084507,"Approved","OW470"
"2023-05-08 18:00",14.5817169014085,"Approved","OW470"
"2023-05-08 19:00",14.5805197183099,"Approved","OW470"
"2023-05-08 20:00",14.5782225352113,"Approved","OW470"
"2023-05-08 21:00",14.5775253521127,"Approved","OW470"
"2023-05-08 22:00",14.5756281690141,"Approved","OW470"
"2023-05-08 23:00",14.5748309859155,"Approved","OW470"
"2023-05-09 00:00",14.5723338028169,"Approved","OW470"
"2023-05-09 01:00",14.5710366197183,"Approved","OW470"
"2023-05-09 02:00",14.5707394366197,"Approved","OW470"
"2023-05-09 03:00",14.5695422535211,"Approved","OW470"
"2023-05-09 04:00",14.5687450704225,"Approved","OW470"
"2023-05-09 05:00",14.5683478873239,"Approved","OW470"
"2023-05-09 06:00",14.5669507042254,"Approved","OW470"
"2023-05-09 07:00",14.5683535211268,"Approved","OW470"
"2023-05-09 08:00",14.5684563380282,"Approved","OW470"
"2023-05-09 09:00",14.5679591549296,"Approved","OW470"
"2023-05-09 10:00",14.566661971831,"Approved","OW470"
"2023-05-09 11:00",14.5695647887324,"Approved","OW470"
"2023-05-09 12:00",14.5705676056338,"Approved","OW470"
"2023-05-09 13:00",14.5727704225352,"Approved","OW470"
"2023-05-09 14:00",14.5746732394366,"Approved","OW470"
"2023-05-09 15:00",14.574476056338,"Approved","OW470"
"2023-05-09 16:00",14.5749788732394,"Approved","OW470"
"2023-05-09 17:00",14.5737816901408,"Approved","OW470"
"2023-05-09 18:00",14.5734845070423,"Approved","OW470"
"2023-05-09 19:00",14.5731873239437,"Approved","OW470"
"2023-05-09 20:00",14.5758901408451,"Approved","OW470"
"2023-05-09 21:00",14.5772929577465,"Approved","OW470"
"2023-05-09 22:00",14.5783957746479,"Approved","OW470"
"2023-05-09 23:00",14.5799985915493,"Approved","OW470"
"2023-05-10 00:00",14.5804014084507,"Approved","OW470"
"2023-05-10 01:00",14.5798042253521,"Approved","OW470"
"2023-05-10 02:00",14.5808070422535,"Approved","OW470"
"2023-05-10 03:00",14.5793098591549,"Approved","OW470"
"2023-05-10 04:00",14.5785126760563,"Approved","OW470"
"2023-05-10 05:00",14.5771154929577,"Approved","OW470"
"2023-05-10 06:00",14.5770183098592,"Approved","OW470"
"2023-05-10 07:00",14.5764211267606,"Approved","OW470"
"2023-05-10 08:00",14.577723943662,"Approved","OW470"
"2023-05-10 09:00",14.5775267605634,"Approved","OW470"
"2023-05-10 10:00",14.5798295774648,"Approved","OW470"
"2023-05-10 11:00",14.5833323943662,"Approved","OW470"
"2023-05-10 12:00",14.5847352112676,"Approved","OW470"
"2023-05-10 13:00",14.586238028169,"Approved","OW470"
"2023-05-10 14:00",14.5875408450704,"Approved","OW470"
"2023-05-10 15:00",14.5885436619718,"Approved","OW470"
"2023-05-10 16:00",14.5895464788732,"Approved","OW470"
"2023-05-10 17:00",14.5883492957746,"Approved","OW470"
"2023-05-10 18:00",14.5869521126761,"Approved","OW470"
"2023-05-10 19:00",14.5874549295775,"Approved","OW470"
"2023-05-10 20:00",14.5891577464789,"Approved","OW470"
"2023-05-10 21:00",14.5928605633803,"Approved","OW470"
"2023-05-10 22:00",14.5958633802817,"Approved","OW470"
"2023-05-10 23:00",14.5984661971831,"Approved","OW470"
"2023-05-11 00:00",14.6008690140845,"Approved","OW470"
"2023-05-11 01:00",14.6040718309859,"Approved","OW470"
"2023-05-11 02:00",14.6070746478873,"Approved","OW470"
"2023-05-11 03:00",14.6105774647887,"Approved","OW470"
"2023-05-11 04:00",14.6147802816901,"Approved","OW470"
"2023-05-11 05:00",14.6180830985915,"Approved","OW470"
"2023-05-11 06:00",14.620285915493,"Approved","OW470"
"2023-05-11 07:00",14.6247887323944,"Approved","OW470"
"2023-05-11 08:00",14.6318915492958,"Approved","OW470"
"2023-05-11 09:00",14.6407943661972,"Approved","OW470"
"2023-05-11 10:00",14.6502971830986,"Approved","OW470"
"2023-05-11 11:00",14.6596,"Approved","OW470"
"2023-05-11 12:00",14.6668028169014,"Approved","OW470"
"2023-05-11 13:00",14.6743056338028,"Approved","OW470"
"2023-05-11 14:00",14.6789084507042,"Approved","OW470"
"2023-05-11 15:00",14.6848112676056,"Approved","OW470"
"2023-05-11 16:00",14.688414084507,"Approved","OW470"
"2023-05-11 17:00",14.6916169014084,"Approved","OW470"
"2023-05-11 18:00",14.6932197183099,"Approved","OW470"
"2023-05-11 19:00",14.6949225352113,"Approved","OW470"
"2023-05-11 20:00",14.6964253521127,"Approved","OW470"
"2023-05-11 21:00",14.6982281690141,"Approved","OW470"
"2023-05-11 22:00",14.7020309859155,"Approved","OW470"
"2023-05-11 23:00",14.7084338028169,"Approved","OW470"
"2023-05-12 00:00",14.7150366197183,"Approved","OW470"
"2023-05-12 01:00",14.7215394366197,"Approved","OW470"
"2023-05-12 02:00",14.7307422535211,"Approved","OW470"
"2023-05-12 03:00",14.7339450704225,"Approved","OW470"
"2023-05-12 04:00",14.7405478873239,"Approved","OW470"
"2023-05-12 05:00",14.7444507042254,"Approved","OW470"
"2023-05-12 06:00",14.7487535211268,"Approved","OW470"
"2023-05-12 07:00",14.7542563380282,"Approved","OW470"
"2023-05-12 08:00",14.7615591549296,"Approved","OW470"
"2023-05-12 09:00",14.768861971831,"Approved","OW470"
"2023-05-12 10:00",14.7778647887324,"Approved","OW470"
"2023-05-12 11:00",14.7850676056338,"Approved","OW470"
"2023-05-12 12:00",14.7914704225352,"Approved","OW470"
"2023-05-12 13:00",14.7981732394366,"Approved","OW470"
"2023-05-12 14:00",14.802176056338,"Approved","OW470"
"2023-05-12 15:00",14.8075788732394,"Approved","OW470"
"2023-05-12 16:00",14.8141816901408,"Approved","OW470"
"2023-05-12 17:00",14.8191845070423,"Approved","OW470"
"2023-05-12 18:00",14.8195873239437,"Approved","OW470"
"2023-05-12 19:00",14.8215901408451,"Approved","OW470"
"2023-05-12 20:00",14.8253929577465,"Approved","OW470"
"2023-05-12 21:00",14.8244957746479,"Approved","OW470"
"2023-05-12 22:00",14.8275985915493,"Approved","OW470"
"2023-05-12 23:00",14.8309014084507,"Approved","OW470"
"2023-05-13 00:00",14.8337042253521,"Approved","OW470"
"2023-05-13 01:00",14.8369070422535,"Approved","OW470"
"2023-05-13 02:00",14.8398098591549,"Approved","OW470"
"2023-05-13 03:00",14.8433126760563,"Approved","OW470"
"2023-05-13 04:00",14.8454154929577,"Approved","OW470"
"2023-05-13 05:00",14.8486183098592,"Approved","OW470"
"2023-05-13 06:00",14.8512211267606,"Approved","OW470"
"2023-05-13 07:00",14.854723943662,"Approved","OW470"
"2023-05-13 08:00",14.8599267605634,"Approved","OW470"
"2023-05-13 09:00",14.8661295774648,"Approved","OW470"
"2023-05-13 10:00",14.8739323943662,"Approved","OW470"
"2023-05-13 11:00",14.8807352112676,"Approved","OW470"
"2023-05-13 12:00",14.884538028169,"Approved","OW470"
"2023-05-13 13:00",14.8913408450704,"Approved","OW470"
"2023-05-13 14:00",14.8916436619718,"Approved","OW470"
"2023-05-13 15:00",14.8909464788732,"Approved","OW470"
"2023-05-13 16:00",14.8934492957746,"Approved","OW470"
"2023-05-13 17:00",14.8951521126761,"Approved","OW470"
"2023-05-13 18:00",14.8974549295775,"Approved","OW470"
"2023-05-13 19:00",14.8964577464789,"Approved","OW470"
"2023-05-13 20:00",14.8960605633803,"Approved","OW470"
"2023-05-13 21:00",14.8966633802817,"Approved","OW470"
"2023-05-13 22:00",14.8984661971831,"Approved","OW470"
"2023-05-13 23:00",14.9045690140845,"Approved","OW470"
"2023-05-14 00:00",14.9103718309859,"Approved","OW470"
"2023-05-14 01:00",14.9145746478873,"Approved","OW470"
"2023-05-14 02:00",14.9186774647887,"Approved","OW470"
"2023-05-14 03:00",14.9229802816901,"Approved","OW470"
"2023-05-14 04:00",14.9266830985915,"Approved","OW470"
"2023-05-14 05:00",14.927385915493,"Approved","OW470"
"2023-05-14 06:00",14.9279887323944,"Approved","OW470"
"2023-05-14 07:00",14.9318915492958,"Approved","OW470"
"2023-05-14 08:00",14.9343943661972,"Approved","OW470"
"2023-05-14 09:00",14.9365971830986,"Approved","OW470"
"2023-05-14 10:00",14.9368,"Approved","OW470"
"2023-05-14 11:00",14.9409028169014,"Approved","OW470"
"2023-05-14 12:00",14.9421056338028,"Approved","OW470"
"2023-05-14 13:00",14.9444084507042,"Approved","OW470"
"2023-05-14 14:00",14.9475112676056,"Approved","OW470"
"2023-05-14 15:00",14.951014084507,"Approved","OW470"
"2023-05-14 16:00",14.9486169014084,"Approved","OW470"
"2023-05-14 17:00",14.9488197183099,"Approved","OW470"
"2023-05-14 18:00",14.9499225352113,"Approved","OW470"
"2023-05-14 19:00",14.9517253521127,"Approved","OW470"
"2023-05-14 20:00",14.9539281690141,"Approved","OW470"
"2023-05-14 21:00",14.9554309859155,"Approved","OW470"
"2023-05-14 22:00",14.9594338028169,"Approved","OW470"
"2023-05-14 23:00",14.9659366197183,"Approved","OW470"
"2023-05-15 00:00",14.9726394366197,"Approved","OW470"
"2023-05-15 01:00",14.9781422535211,"Approved","OW470"
"2023-05-15 02:00",14.9845450704225,"Approved","OW470"
"2023-05-15 03:00",14.9882478873239,"Approved","OW470"
"2023-05-15 04:00",14.9926507042254,"Approved","OW470"
"2023-05-15 05:00",14.9952535211268,"Approved","OW470"
"2023-05-15 06:00",14.9989563380282,"Approved","OW470"
"2023-05-15 07:00",15.0025591549296,"Approved","OW470"
"2023-05-15 08:00",15.003661971831,"Approved","OW470"
"2023-05-15 09:00",15.0062647887324,"Approved","OW470"
"2023-05-15 10:00",15.0129676056338,"Approved","OW470"
"2023-05-15 11:00",15.0181704225352,"Approved","OW470"
"2023-05-15 12:00",15.0221732394366,"Approved","OW470"
"2023-05-15 13:00",15.025976056338,"Approved","OW470"
"2023-05-15 14:00",15.0281788732394,"Approved","OW470"
"2023-05-15 15:00",15.0296816901408,"Approved","OW470"
"2023-05-15 16:00",15.0295845070423,"Approved","OW470"
"2023-05-15 17:00",15.0305873239437,"Approved","OW470"
"2023-05-15 18:00",15.0304901408451,"Approved","OW470"
"2023-05-15 19:00",15.0306929577465,"Approved","OW470"
"2023-05-15 20:00",15.0300957746479,"Approved","OW470"
"2023-05-15 21:00",15.0332985915493,"Approved","OW470"
"2023-05-15 22:00",15.0360014084507,"Approved","OW470"
"2023-05-15 23:00",15.0410042253521,"Approved","OW470"
"2023-05-16 00:00",15.0448070422535,"Approved","OW470"
"2023-05-16 01:00",15.0532098591549,"Approved","OW470"
"2023-05-16 02:00",15.0607126760563,"Approved","OW470"
"2023-05-16 03:00",15.0689154929577,"Approved","OW470"
"2023-05-16 04:00",15.0757183098592,"Approved","OW470"
"2023-05-16 05:00",15.0831211267606,"Approved","OW470"
"2023-05-16 06:00",15.088723943662,"Approved","OW470"
"2023-05-16 07:00",15.0925267605634,"Approved","OW470"
"2023-05-16 08:00",15.0982295774648,"Approved","OW470"
"2023-05-16 09:00",15.1051323943662,"Approved","OW470"
"2023-05-16 10:00",15.1129352112676,"Approved","OW470"
"2023-05-16 11:00",15.122838028169,"Approved","OW470"
"2023-05-16 12:00",15.1314408450704,"Approved","OW470"
"2023-05-16 13:00",15.1376436619718,"Approved","OW470"
"2023-05-16 14:00",15.1417464788732,"Approved","OW470"
"2023-05-16 15:00",15.1462492957746,"Approved","OW470"
"2023-05-16 16:00",15.1460521126761,"Approved","OW470"
"2023-05-16 17:00",15.1466549295775,"Approved","OW470"
"2023-05-16 18:00",15.1461577464789,"Approved","OW470"
"2023-05-16 19:00",15.1450605633803,"Approved","OW470"
"2023-05-16 20:00",15.1450633802817,"Approved","OW470"
"2023-05-16 21:00",15.1441661971831,"Approved","OW470"
"2023-05-16 22:00",15.1431690140845,"Approved","OW470"
"2023-05-16 23:00",15.1426718309859,"Approved","OW470"
"2023-05-17 00:00",15.1422746478873,"Approved","OW470"
"2023-05-17 01:00",15.1432774647887,"Approved","OW470"
"2023-05-17 02:00",15.1425802816901,"Approved","OW470"
"2023-05-17 03:00",15.1438830985915,"Approved","OW470"
"2023-05-17 04:00",15.144185915493,"Approved","OW470"
"2023-05-17 05:00",15.1444887323944,"Approved","OW470"
"2023-05-17 06:00",15.1463915492958,"Approved","OW470"
"2023-05-17 07:00",15.1472943661972,"Approved","OW470"
"2023-05-17 08:00",15.1496971830986,"Approved","OW470"
"2023-05-17 09:00",15.1509,"Working","OW470"
"2023-05-17 10:00",15.151,"Working","OW470"
"2023-05-17 11:00",15.1580023333333,"Working","OW470"
"2023-05-17 12:00",15.1640046666667,"Working","OW470"
"2023-05-17 13:00",15.170007,"Working","OW470"
"2023-05-17 14:00",15.1740093333333,"Working","OW470"
"2023-05-17 15:00",15.1770116666667,"Working","OW470"
"2023-05-17 16:00",15.179014,"Working","OW470"
"2023-05-17 17:00",15.1810163333333,"Working","OW470"
"2023-05-17 18:00",15.1800186666667,"Working","OW470"
"2023-05-17 19:00",15.180021,"Working","OW470"
"2023-05-17 20:00",15.1790233333333,"Working","OW470"
"2023-05-17 21:00",15.1790256666667,"Working","OW470"
"2023-05-17 22:00",15.181028,"Working","OW470"
"2023-05-17 23:00",15.1840303333333,"Working","OW470"
"2023-05-18 00:00",15.1850326666667,"Working","OW470"
"2023-05-18 01:00",15.187035,"Working","OW470"
"2023-05-18 02:00",15.1910373333333,"Working","OW470"
"2023-05-18 03:00",15.1920396666667,"Working","OW470"
"2023-05-18 04:00",15.193042,"Working","OW470"
"2023-05-18 05:00",15.1940443333333,"Working","OW470"
"2023-05-18 06:00",15.1960466666667,"Working","OW470"
"2023-05-18 07:00",15.198049,"Working","OW470"
"2023-05-18 08:00",15.1980513333333,"Working","OW470"
"2023-05-18 09:00",15.2010536666667,"Working","OW470"
"2023-05-18 10:00",15.207056,"Working","OW470"
"2023-05-18 11:00",15.2140583333333,"Working","OW470"
"2023-05-18 12:00",15.2230606666667,"Working","OW470"
"2023-05-18 13:00",15.229063,"Working","OW470"
"2023-05-18 14:00",15.2340653333333,"Working","OW470"
"2023-05-18 15:00",15.2410676666667,"Working","OW470"
"2023-05-18 16:00",15.24307,"Working","OW470"
"2023-05-18 17:00",15.2450723333333,"Working","OW470"
"2023-05-18 18:00",15.2460746666667,"Working","OW470"
"2023-05-18 19:00",15.249077,"Working","OW470"
"2023-05-18 20:00",15.2510793333333,"Working","OW470"
"2023-05-18 21:00",15.2560816666667,"Working","OW470"
"2023-05-18 22:00",15.260084,"Working","OW470"
"2023-05-18 23:00",15.2640863333333,"Working","OW470"
"2023-05-19 00:00",15.2690886666667,"Working","OW470"
"2023-05-19 01:00",15.275091,"Working","OW470"
"2023-05-19 02:00",15.2790933333333,"Working","OW470"
"2023-05-19 03:00",15.2820956666667,"Working","OW470"
"2023-05-19 04:00",15.286098,"Working","OW470"
"2023-05-19 05:00",15.2911003333333,"Working","OW470"
"2023-05-19 06:00",15.2971026666667,"Working","OW470"
"2023-05-19 07:00",15.302105,"Working","OW470"
"2023-05-19 08:00",15.3071073333333,"Working","OW470"
"2023-05-19 09:00",15.3111096666667,"Working","OW470"
"2023-05-19 10:00",15.315112,"Working","OW470"
"2023-05-19 11:00",15.3181143333333,"Working","OW470"
"2023-05-19 12:00",15.3221166666667,"Working","OW470"
"2023-05-19 13:00",15.324119,"Working","OW470"
"2023-05-19 14:00",15.3241213333333,"Working","OW470"
"2023-05-19 15:00",15.3251236666667,"Working","OW470"
"2023-05-19 16:00",15.324126,"Working","OW470"
"2023-05-19 17:00",15.3231283333333,"Working","OW470"
"2023-05-19 18:00",15.3231306666667,"Working","OW470"
"2023-05-19 19:00",15.322133,"Working","OW470"
"2023-05-19 20:00",15.3211353333333,"Working","OW470"
"2023-05-19 21:00",15.3211376666667,"Working","OW470"
"2023-05-19 22:00",15.32314,"Working","OW470"
"2023-05-19 23:00",15.3221423333333,"Working","OW470"
"2023-05-20 00:00",15.3281446666667,"Working","OW470"
"2023-05-20 01:00",15.330147,"Working","OW470"
"2023-05-20 02:00",15.3331493333333,"Working","OW470"
"2023-05-20 03:00",15.3351516666667,"Working","OW470"
"2023-05-20 04:00",15.338154,"Working","OW470"
"2023-05-20 05:00",15.3381563333333,"Working","OW470"
"2023-05-20 06:00",15.3421586666667,"Working","OW470"
"2023-05-20 07:00",15.346161,"Working","OW470"
"2023-05-20 08:00",15.3491633333333,"Working","OW470"
"2023-05-20 09:00",15.3501656666667,"Working","OW470"
"2023-05-20 10:00",15.354168,"Working","OW470"
"2023-05-20 11:00",15.3561703333333,"Working","OW470"
"2023-05-20 12:00",15.3611726666667,"Working","OW470"
"2023-05-20 13:00",15.368175,"Working","OW470"
"2023-05-20 14:00",15.3731773333333,"Working","OW470"
"2023-05-20 15:00",15.3731796666667,"Working","OW470"
"2023-05-20 16:00",15.374182,"Working","OW470"
"2023-05-20 17:00",15.3781843333333,"Working","OW470"
"2023-05-20 18:00",15.3771866666667,"Working","OW470"
"2023-05-20 19:00",15.378189,"Working","OW470"
"2023-05-20 20:00",15.3781913333333,"Working","OW470"
"2023-05-20 21:00",15.3821936666667,"Working","OW470"
"2023-05-20 22:00",15.387196,"Working","OW470"
"2023-05-20 23:00",15.3921983333333,"Working","OW470"
"2023-05-21 00:00",15.3982006666667,"Working","OW470"
"2023-05-21 01:00",15.403203,"Working","OW470"
"2023-05-21 02:00",15.4082053333333,"Working","OW470"
"2023-05-21 03:00",15.4132076666667,"Working","OW470"
"2023-05-21 04:00",15.41521,"Working","OW470"
"2023-05-21 05:00",15.4202123333333,"Working","OW470"
"2023-05-21 06:00",15.4252146666667,"Working","OW470"
"2023-05-21 07:00",15.427217,"Working","OW470"
"2023-05-21 08:00",15.4312193333333,"Working","OW470"
"2023-05-21 09:00",15.4382216666667,"Working","OW470"
"2023-05-21 10:00",15.442224,"Working","OW470"
"2023-05-21 11:00",15.4482263333333,"Working","OW470"
"2023-05-21 12:00",15.4562286666667,"Working","OW470"
"2023-05-21 13:00",15.462231,"Working","OW470"
"2023-05-21 14:00",15.4672333333333,"Working","OW470"
"2023-05-21 15:00",15.4722356666667,"Working","OW470"
"2023-05-21 16:00",15.474238,"Working","OW470"
"2023-05-21 17:00",15.4772403333333,"Working","OW470"
"2023-05-21 18:00",15.4802426666667,"Working","OW470"
"2023-05-21 19:00",15.483245,"Working","OW470"
"2023-05-21 20:00",15.4862473333333,"Working","OW470"
"2023-05-21 21:00",15.4892496666667,"Working","OW470"
"2023-05-21 22:00",15.491252,"Working","OW470"
"2023-05-21 23:00",15.4942543333333,"Working","OW470"
"2023-05-22 00:00",15.5002566666667,"Working","OW470"
"2023-05-22 01:00",15.505259,"Working","OW470"
"2023-05-22 02:00",15.5102613333333,"Working","OW470"
"2023-05-22 03:00",15.5162636666667,"Working","OW470"
"2023-05-22 04:00",15.520266,"Working","OW470"
"2023-05-22 05:00",15.5242683333333,"Working","OW470"
"2023-05-22 06:00",15.5282706666667,"Working","OW470"
"2023-05-22 07:00",15.535273,"Working","OW470"
"2023-05-22 08:00",15.5392753333333,"Working","OW470"
"2023-05-22 09:00",15.5432776666667,"Working","OW470"
"2023-05-22 10:00",15.54728,"Working","OW470"
"2023-05-22 11:00",15.5512823333333,"Working","OW470"
"2023-05-22 12:00",15.5562846666667,"Working","OW470"
"2023-05-22 13:00",15.556287,"Working","OW470"
"2023-05-22 14:00",15.5612893333333,"Working","OW470"
"2023-05-22 15:00",15.5652916666667,"Working","OW470"
"2023-05-22 16:00",15.567294,"Working","OW470"
"2023-05-22 17:00",15.5702963333333,"Working","OW470"
"2023-05-22 18:00",15.5712986666667,"Working","OW470"
"2023-05-22 19:00",15.572301,"Working","OW470"
"2023-05-22 20:00",15.5733033333333,"Working","OW470"
"2023-05-22 21:00",15.5753056666667,"Working","OW470"
"2023-05-22 22:00",15.575308,"Working","OW470"
"2023-05-22 23:00",15.5763103333333,"Working","OW470"
"2023-05-23 00:00",15.5773126666667,"Working","OW470"
"2023-05-23 01:00",15.577315,"Working","OW470"
"2023-05-23 02:00",15.5773173333333,"Working","OW470"
"2023-05-23 03:00",15.5773196666667,"Working","OW470"
"2023-05-23 04:00",15.577322,"Working","OW470"
"2023-05-23 05:00",15.5773243333333,"Working","OW470"
"2023-05-23 06:00",15.5773266666667,"Working","OW470"
"2023-05-23 07:00",15.577329,"Working","OW470"
"2023-05-23 08:00",15.5763313333333,"Working","OW470"
"2023-05-23 09:00",15.5763336666667,"Working","OW470"
"2023-05-23 10:00",15.576336,"Working","OW470"
"2023-05-23 11:00",15.5763383333333,"Working","OW470"
"2023-05-23 12:00",15.5773406666667,"Working","OW470"
"2023-05-23 13:00",15.577343,"Working","OW470"
"2023-05-23 14:00",15.5783453333333,"Working","OW470"
"2023-05-23 15:00",15.5773476666667,"Working","OW470"
"2023-05-23 16:00",15.57635,"Working","OW470"
"2023-05-23 17:00",15.5763523333333,"Working","OW470"
"2023-05-23 18:00",15.5743546666667,"Working","OW470"
"2023-05-23 19:00",15.572357,"Working","OW470"
"2023-05-23 20:00",15.5713593333333,"Working","OW470"
"2023-05-23 21:00",15.5693616666667,"Working","OW470"
"2023-05-23 22:00",15.568364,"Working","OW470"
"2023-05-23 23:00",15.5663663333333,"Working","OW470"
"2023-05-24 00:00",15.5653686666667,"Working","OW470"
"2023-05-24 01:00",15.562371,"Working","OW470"
"2023-05-24 02:00",15.5633733333333,"Working","OW470"
"2023-05-24 03:00",15.5603756666667,"Working","OW470"
"2023-05-24 04:00",15.556378,"Working","OW470"
"2023-05-24 05:00",15.5523803333333,"Working","OW470"